Weather History for KRYT - July, 2013

Change the Weather History Date:

Tuesday, July 16, 2013

  Actual Average (KHGR) Record (KHGR)
Temperature  
Mean Temperature 84 °F -  
Max Temperature 93 °F 82 °F 96 °F (2010)
Min Temperature 73 °F 63 °F 61 °F (2000)
Cooling Degree Days 19    
Growing Degree Days 34 (Base 50)    
Moisture  
Dew Point 68 °F    
Average Humidity 59    
Maximum Humidity 82    
Minimum Humidity 38    
Precipitation  
Precipitation 0.00 in - - ()
Sea Level Pressure  
Sea Level Pressure 30.20 in    
Wind  
Wind Speed 1 mph (NNE)    
Max Wind Speed 8 mph    
Max Gust Speed -    
Visibility 10 miles    
Events      
Averages and records for this station are not official NWS values.
T = Trace of Precipitation, MM = Missing Value Source: NWS Daily Summary

Daily Weather History Graph

Daily Weather History Graph

Search for Another Location

Airport or City:

Trip Planner

Search our weather history database for the weather conditions in past years. The results will help you decide how hot, cold, wet, or windy it might be!

Date:

Astronomy

Jul. 16, 2013 Rise Set
Actual Time 5:55 AM EDT 8:36 PM EDT
Civil Twilight 5:23 AM EDT 9:07 PM EDT
Nautical Twilight 4:44 AM EDT 9:46 PM EDT
Astronomical Twilight 3:59 AM EDT 10:31 PM EDT
Moon 2:15 PM EDT (7/16) 12:23 AM EDT (7/16)
Length of Visible Light 15h 43m
Length of Day
14h 40m
First Quarter, 56% of the Moon is Illuminated
Jul 16
First Quarter
Jul 22
Full
Jul 29
Last Quarter
Aug 6
New
Aug 14
First Quarter

Hourly Weather History & Observations

Time (EDT) Temp. Heat Index Dew Point Humidity Pressure Visibility Wind Dir Wind Speed Gust Speed Precip Events Conditions
12:53 AM 82.9 °F 86.5 °F 69.1 °F 63% 30.19 in 10.0 mi Calm Calm - N/A   Clear
1:53 AM 82.0 °F 85.5 °F 69.1 °F 65% 30.19 in 10.0 mi Calm Calm - N/A   Mostly Cloudy
2:53 AM 81.0 °F 84.1 °F 69.1 °F 67% 30.18 in 10.0 mi Calm Calm - N/A   Mostly Cloudy
3:53 AM 82.0 °F 85.5 °F 69.1 °F 65% 30.18 in 10.0 mi Calm Calm - N/A   Mostly Cloudy
4:53 AM 79.0 °F - 69.1 °F 72% 30.19 in 10.0 mi Calm Calm - N/A   Scattered Clouds
5:53 AM 79.0 °F - 69.1 °F 72% 30.21 in 10.0 mi Calm Calm - N/A   Overcast
6:53 AM 77.0 °F - 70.0 °F 79% 30.22 in 9.0 mi Calm Calm - N/A   Partly Cloudy
7:53 AM 82.0 °F 86.7 °F 72.0 °F 71% 30.23 in 10.0 mi Calm Calm - N/A   Scattered Clouds
8:53 AM 84.9 °F 90.1 °F 71.1 °F 63% 30.24 in 10.0 mi North 8.1 mph - N/A   Clear
9:53 AM 87.1 °F 89.2 °F 66.0 °F 49% 30.24 in 10.0 mi ENE 3.5 mph - N/A   Partly Cloudy
10:53 AM 89.1 °F 90.3 °F 64.0 °F 43% 30.23 in 10.0 mi Variable 5.8 mph - N/A   Partly Cloudy
11:53 AM 90.0 °F 91.3 °F 64.0 °F 42% 30.22 in 10.0 mi Calm Calm - N/A   Clear
12:53 PM 91.0 °F 93.8 °F 66.0 °F 44% 30.21 in 10.0 mi Calm Calm - N/A   Partly Cloudy
1:53 PM 91.0 °F 93.0 °F 64.9 °F 42% 30.20 in 10.0 mi NE 8.1 mph - N/A   Partly Cloudy
2:53 PM 91.9 °F 94.5 °F 66.0 °F 42% 30.18 in 10.0 mi Variable 4.6 mph - N/A   Clear
3:53 PM 93.0 °F 94.6 °F 64.0 °F 38% 30.17 in 10.0 mi NNE 4.6 mph - N/A   Clear
4:53 PM 93.0 °F 94.6 °F 64.0 °F 38% 30.17 in 10.0 mi North 4.6 mph - N/A   Partly Cloudy
5:53 PM 91.9 °F 94.5 °F 66.0 °F 42% 30.17 in 10.0 mi North 4.6 mph - N/A   Clear
6:53 PM 90.0 °F 92.8 °F 66.9 °F 46% 30.17 in 10.0 mi Calm Calm - N/A   Clear
7:53 PM 84.0 °F 89.0 °F 71.1 °F 65% 30.17 in 10.0 mi Calm Calm - N/A   Clear
8:53 PM 78.1 °F - 70.0 °F 76% 30.19 in 10.0 mi Calm Calm - N/A   Clear
9:53 PM 75.9 °F - 69.1 °F 79% 30.20 in 10.0 mi Calm Calm - N/A   Clear
10:53 PM 75.0 °F - 68.0 °F 79% 30.20 in 10.0 mi Calm Calm - N/A   Clear
11:53 PM 73.9 °F - 68.0 °F 82% 30.20 in 10.0 mi SSW 3.5 mph - N/A   Clear